�������l�o���
Date,Time,MP-1(��Sv/h),MP-2(��Sv/h),MP-3(��Sv/h),MP-4(��Sv/h),MP-5(��Sv/h),MP-6(��Sv/h),MP-7(��Sv/h),MP-8(��Sv/h),����,����(m/s),���J
2021/09/12,00:00,0.591,0.880,0.557,1.068,0.755,0.362,0.624,0.583,��,2.0,��
2021/09/12,00:10,0.593,0.882,0.558,1.069,0.754,0.363,0.624,0.582,��쐼,1.2,��
2021/09/12,00:20,0.594,0.881,0.558,1.068,0.755,0.362,0.624,0.583,��,1.5,��
2021/09/12,00:30,0.592,0.880,0.557,1.065,0.754,0.362,0.624,0.582,��쐼,0.6,��
2021/09/12,00:40,0.591,0.880,0.557,1.069,0.753,0.365,0.624,0.584,���쐼,1.2,��
2021/09/12,00:50,0.593,0.880,0.557,1.067,0.753,0.363,0.624,0.582,���쐼,1.5,��
2021/09/12,01:00,0.593,0.878,0.557,1.068,0.754,0.363,0.624,0.584,��,1.2,��
2021/09/12,01:10,0.592,0.879,0.557,1.068,0.753,0.363,0.623,0.585,���쐼,1.1,��
2021/09/12,01:20,0.591,0.879,0.557,1.066,0.756,0.362,0.624,0.585,���쐼,0.9,��
2021/09/12,01:30,0.593,0.879,0.558,1.069,0.755,0.363,0.623,0.583,���쐼,1.2,��
2021/09/12,01:40,0.591,0.880,0.557,1.068,0.754,0.363,0.625,0.582,�쐼,1.5,��
2021/09/12,01:50,0.591,0.877,0.558,1.068,0.755,0.363,0.624,0.583,�쐼,1.5,��
2021/09/12,02:00,0.591,0.879,0.557,1.066,0.752,0.363,0.624,0.584,�쐼,1.7,��
2021/09/12,02:10,0.592,0.879,0.557,1.065,0.753,0.362,0.624,0.584,��,2.5,��
2021/09/12,02:20,0.591,0.878,0.558,1.068,0.751,0.361,0.624,0.584,���쐼,1.7,��
2021/09/12,02:30,0.591,0.880,0.556,1.065,0.754,0.362,0.624,0.582,���쐼,1.4,��
2021/09/12,02:40,0.590,0.876,0.556,1.067,0.753,0.362,0.623,0.583,��,1.7,��
2021/09/12,02:50,0.591,0.878,0.557,1.064,0.754,0.363,0.624,0.583,�k��,1.9,��
2021/09/12,03:00,0.591,0.880,0.557,1.068,0.754,0.362,0.622,0.583,�k��,2.2,��
2021/09/12,03:10,0.591,0.878,0.556,1.066,0.754,0.361,0.623,0.584,�k�k��,2.5,��
2021/09/12,03:20,0.592,0.879,0.557,1.068,0.754,0.362,0.621,0.583,�k�k��,2.5,��
2021/09/12,03:30,0.593,0.878,0.557,1.067,0.752,0.362,0.623,0.583,�k��,3.3,��
2021/09/12,03:40,0.589,0.878,0.557,1.066,0.753,0.363,0.624,0.585,�k��,1.9,��
2021/09/12,03:50,0.590,0.879,0.557,1.067,0.752,0.361,0.624,0.583,���k��,2.0,��
2021/09/12,04:00,0.590,0.878,0.558,1.066,0.752,0.362,0.622,0.584,���k��,3.6,��
2021/09/12,04:10,0.592,0.877,0.558,1.067,0.754,0.362,0.625,0.583,���k��,4.2,��
2021/09/12,04:20,0.591,0.880,0.558,1.068,0.752,0.363,0.623,0.584,�k��,3.9,��
2021/09/12,04:30,0.591,0.877,0.559,1.067,0.752,0.362,0.623,0.582,�k��,4.0,��
2021/09/12,04:40,0.591,0.878,0.556,1.068,0.753,0.361,0.623,0.584,�k�k��,3.3,��
2021/09/12,04:50,0.592,0.877,0.557,1.066,0.752,0.363,0.622,0.584,�k�k��,3.0,��
2021/09/12,05:00,0.590,0.877,0.558,1.067,0.753,0.363,0.621,0.584,�k�k��,3.4,��
2021/09/12,05:10,0.592,0.877,0.557,1.066,0.752,0.362,0.624,0.583,�k�k��,3.2,��
2021/09/12,05:20,0.591,0.878,0.558,1.068,0.755,0.363,0.623,0.585,�k�k��,3.2,��
2021/09/12,05:30,0.590,0.879,0.557,1.068,0.752,0.363,0.625,0.584,�k�k��,3.2,��
2021/09/12,05:40,0.589,0.877,0.557,1.066,0.752,0.363,0.622,0.584,�k�k��,2.9,��
2021/09/12,05:50,0.591,0.880,0.556,1.066,0.751,0.362,0.623,0.585,�k�k��,3.1,��
2021/09/12,06:00,0.590,0.879,0.558,1.070,0.753,0.362,0.622,0.586,�k�k��,2.6,��
2021/09/12,06:10,0.591,0.880,0.556,1.064,0.752,0.362,0.624,0.586,�k�k��,2.5,��
2021/09/12,06:20,0.589,0.878,0.557,1.067,0.753,0.364,0.622,0.583,�k�k��,1.7,��
2021/09/12,06:30,0.591,0.876,0.557,1.068,0.754,0.363,0.622,0.583,���k��,1.1,��
2021/09/12,06:40,0.592,0.878,0.558,1.065,0.753,0.363,0.622,0.583,��쐼,1.1,��
2021/09/12,06:50,0.592,0.880,0.557,1.066,0.752,0.363,0.623,0.584,��쐼,1.7,��
2021/09/12,07:00,0.592,0.879,0.558,1.069,0.755,0.364,0.623,0.584,��쐼,2.0,��
2021/09/12,07:10,0.593,0.881,0.556,1.067,0.753,0.364,0.623,0.585,�쐼,2.0,��
2021/09/12,07:20,0.591,0.879,0.559,1.068,0.753,0.362,0.623,0.585,��쐼,2.3,��
2021/09/12,07:30,0.592,0.881,0.559,1.068,0.752,0.362,0.623,0.585,��쐼,1.7,��
2021/09/12,07:40,0.591,0.880,0.557,1.066,0.753,0.363,0.623,0.585,��쐼,0.9,��
2021/09/12,07:50,0.592,0.881,0.557,1.069,0.753,0.359,0.622,0.587,��쐼,1.2,��
2021/09/12,08:00,0.593,0.879,0.558,1.067,0.752,0.361,0.623,0.585,��,1.5,��
2021/09/12,08:10,0.592,0.880,0.559,1.069,0.753,0.361,0.624,0.585,�쐼,1.2,��
2021/09/12,08:20,0.592,0.881,0.558,1.067,0.752,0.363,0.623,0.583,��쐼,0.6,��
2021/09/12,08:30,0.591,0.879,0.558,1.069,0.753,0.361,0.622,0.581,-,CALM,��
2021/09/12,08:40,0.592,0.881,0.556,1.070,0.752,0.362,0.623,0.582,-,CALM,��
2021/09/12,08:50,0.591,0.880,0.556,1.067,0.751,0.361,0.622,0.583,��,0.9,��
2021/09/12,09:00,0.591,0.879,0.557,1.068,0.753,0.362,0.622,0.582,�쓌,0.6,��
2021/09/12,09:10,0.591,0.879,0.556,1.067,0.751,0.363,0.623,0.582,��쓌,1.2,��
2021/09/12,09:20,0.589,0.881,0.556,1.068,0.751,0.362,0.622,0.583,��쓌,1.5,��
2021/09/12,09:30,0.590,0.880,0.556,1.068,0.752,0.361,0.621,0.583,��쓌,2.3,��
2021/09/12,09:40,0.591,0.881,0.557,1.070,0.751,0.360,0.622,0.582,��쓌,2.3,��
2021/09/12,09:50,0.591,0.880,0.555,1.070,0.752,0.362,0.623,0.581,��쓌,2.3,��
2021/09/12,10:00,0.590,0.882,0.555,1.069,0.751,0.362,0.622,0.581,��쓌,3.5,��
2021/09/12,10:10,0.590,0.883,0.556,1.064,0.754,0.360,0.621,0.580,��쓌,3.8,��
2021/09/12,10:20,0.591,0.880,0.556,1.069,0.755,0.362,0.623,0.581,��쓌,3.5,��
2021/09/12,10:30,0.590,0.882,0.556,1.066,0.753,0.361,0.622,0.580,�쓌,2.3,��
2021/09/12,10:40,0.590,0.883,0.557,1.069,0.754,0.360,0.621,0.582,�쓌,2.3,��
2021/09/12,10:50,0.590,0.884,0.555,1.070,0.754,0.361,0.621,0.583,�쓌,3.1,��
2021/09/12,11:00,0.592,0.883,0.555,1.069,0.754,0.360,0.621,0.583,�쓌,3.3,��
2021/09/12,11:10,0.591,0.885,0.556,1.068,0.754,0.361,0.622,0.582,��쓌,4.7,��
2021/09/12,11:20,0.592,0.883,0.557,1.067,0.753,0.363,0.623,0.581,�쓌,4.4,��
2021/09/12,11:30,0.591,0.884,0.556,1.067,0.755,0.360,0.623,0.582,��쓌,5.5,��
2021/09/12,11:40,0.592,0.882,0.556,1.069,0.754,0.361,0.623,0.583,��쓌,6.0,��
2021/09/12,11:50,0.590,0.885,0.557,1.066,0.755,0.362,0.620,0.581,��쓌,5.5,��
2021/09/12,12:00,0.590,0.884,0.556,1.068,0.754,0.361,0.622,0.582,��쓌,4.7,��
2021/09/12,12:10,0.592,0.884,0.556,1.069,0.755,0.361,0.622,0.583,��쓌,4.7,��
2021/09/12,12:20,0.591,0.882,0.557,1.069,0.756,0.361,0.624,0.583,��,4.4,��
2021/09/12,12:30,0.592,0.887,0.558,1.068,0.756,0.362,0.622,0.582,��쓌,4.4,��
2021/09/12,12:40,0.594,0.885,0.558,1.070,0.754,0.363,0.623,0.583,��쓌,4.3,��
2021/09/12,12:50,0.592,0.885,0.556,1.069,0.755,0.363,0.621,0.582,��쓌,4.5,��
2021/09/12,13:00,0.592,0.885,0.558,1.070,0.754,0.361,0.623,0.580,��쓌,5.1,��
2021/09/12,13:10,0.591,0.885,0.557,1.067,0.755,0.362,0.623,0.582,��,4.4,��
2021/09/12,13:20,0.592,0.885,0.558,1.070,0.754,0.362,0.624,0.581,��,7.7,��
2021/09/12,13:30,0.591,0.883,0.560,1.070,0.753,0.360,0.622,0.582,��,7.9,��
2021/09/12,13:40,0.591,0.885,0.557,1.070,0.753,0.362,0.622,0.582,��,7.5,��
2021/09/12,13:50,0.592,0.886,0.557,1.069,0.753,0.364,0.623,0.583,��,7.3,��
2021/09/12,14:00,0.594,0.885,0.559,1.069,0.754,0.361,0.623,0.585,��,6.5,��
2021/09/12,14:10,0.594,0.887,0.560,1.069,0.757,0.362,0.623,0.581,��,5.6,��
2021/09/12,14:20,0.593,0.889,0.561,1.070,0.756,0.363,0.623,0.584,��,6.0,��
2021/09/12,14:30,0.595,0.888,0.560,1.069,0.758,0.361,0.623,0.583,��,5.5,��
2021/09/12,14:40,0.595,0.888,0.560,1.068,0.756,0.362,0.623,0.585,��,6.3,��
2021/09/12,14:50,0.596,0.889,0.562,1.071,0.758,0.363,0.623,0.584,��,7.3,��
2021/09/12,15:00,0.596,0.890,0.561,1.071,0.756,0.362,0.624,0.585,��,8.4,��
2021/09/12,15:10,0.595,0.890,0.559,1.072,0.758,0.363,0.623,0.584,��,9.3,��
2021/09/12,15:20,0.594,0.890,0.560,1.069,0.758,0.362,0.624,0.585,��,8.5,��
2021/09/12,15:30,0.594,0.888,0.561,1.072,0.760,0.361,0.623,0.587,��,7.6,��
2021/09/12,15:40,0.594,0.891,0.560,1.072,0.758,0.361,0.624,0.584,��,7.4,��
2021/09/12,15:50,0.596,0.891,0.562,1.073,0.756,0.362,0.625,0.586,��,6.9,��
2021/09/12,16:00,0.594,0.890,0.561,1.071,0.758,0.362,0.625,0.584,��,6.0,��
2021/09/12,16:10,0.595,0.888,0.562,1.073,0.758,0.363,0.625,0.587,��,6.2,��
2021/09/12,16:20,0.596,0.891,0.561,1.071,0.757,0.364,0.624,0.586,��,6.4,��
2021/09/12,16:30,0.597,0.890,0.560,1.071,0.758,0.364,0.625,0.586,��,5.6,��
2021/09/12,16:40,0.593,0.890,0.560,1.074,0.758,0.363,0.625,0.586,��쐼,5.1,��
2021/09/12,16:50,0.594,0.890,0.561,1.073,0.758,0.363,0.625,0.587,��쐼,4.9,��
2021/09/12,17:00,0.593,0.892,0.561,1.075,0.758,0.364,0.625,0.584,��쐼,5.5,��
2021/09/12,17:10,0.594,0.890,0.562,1.074,0.759,0.363,0.625,0.584,��쐼,5.3,��
2021/09/12,17:20,0.596,0.889,0.560,1.070,0.759,0.361,0.626,0.586,��쐼,5.6,��
2021/09/12,17:30,0.595,0.888,0.561,1.073,0.758,0.363,0.623,0.585,��쐼,6.0,��
2021/09/12,17:40,0.592,0.889,0.560,1.072,0.756,0.363,0.624,0.584,��쐼,6.6,��
2021/09/12,17:50,0.595,0.890,0.560,1.072,0.759,0.365,0.625,0.585,��쐼,6.3,��
2021/09/12,18:00,0.594,0.889,0.562,1.072,0.758,0.364,0.624,0.585,��쐼,6.4,��
2021/09/12,18:10,0.595,0.888,0.562,1.072,0.758,0.363,0.626,0.586,��쐼,5.7,��
2021/09/12,18:20,0.594,0.891,0.560,1.072,0.759,0.365,0.625,0.585,��쐼,5.6,��
2021/09/12,18:30,0.595,0.888,0.562,1.074,0.759,0.363,0.624,0.586,��쐼,5.3,��
2021/09/12,18:40,0.593,0.888,0.562,1.072,0.759,0.362,0.626,0.586,��쐼,4.0,��
2021/09/12,18:50,0.594,0.888,0.562,1.071,0.758,0.364,0.626,0.586,��쐼,4.5,��
2021/09/12,19:00,0.597,0.890,0.561,1.074,0.758,0.363,0.625,0.586,��쐼,5.5,��
2021/09/12,19:10,0.596,0.887,0.561,1.072,0.761,0.363,0.625,0.584,��쐼,4.8,��
2021/09/12,19:20,0.593,0.890,0.561,1.073,0.758,0.362,0.625,0.587,��쐼,5.4,��
2021/09/12,19:30,0.596,0.890,0.561,1.073,0.759,0.363,0.626,0.585,��쐼,5.2,��
2021/09/12,19:40,0.593,0.890,0.561,1.073,0.758,0.363,0.627,0.584,��쐼,4.3,��
2021/09/12,19:50,0.594,0.889,0.559,1.071,0.759,0.363,0.624,0.586,�쐼,3.7,��
2021/09/12,20:00,0.596,0.891,0.561,1.073,0.758,0.363,0.625,0.586,�쐼,2.2,��
2021/09/12,20:10,0.594,0.887,0.561,1.074,0.757,0.364,0.624,0.587,��쐼,2.3,��
2021/09/12,20:20,0.593,0.889,0.561,1.071,0.759,0.364,0.626,0.586,�쐼,2.8,��
2021/09/12,20:30,0.595,0.888,0.562,1.072,0.761,0.364,0.624,0.585,��쐼,3.8,��
2021/09/12,20:40,0.595,0.888,0.561,1.073,0.760,0.363,0.625,0.585,��쐼,3.5,��
2021/09/12,20:50,0.596,0.888,0.561,1.073,0.759,0.362,0.626,0.586,��쐼,2.5,��
2021/09/12,21:00,0.596,0.887,0.560,1.072,0.759,0.364,0.626,0.585,�쐼,2.0,��
2021/09/12,21:10,0.595,0.889,0.559,1.071,0.758,0.364,0.624,0.586,��쐼,1.9,��
2021/09/12,21:20,0.597,0.888,0.561,1.072,0.757,0.362,0.626,0.584,���쐼,1.2,��
2021/09/12,21:30,0.596,0.886,0.561,1.072,0.761,0.363,0.625,0.584,���쐼,0.9,��
2021/09/12,21:40,0.595,0.886,0.562,1.072,0.759,0.364,0.626,0.586,��,3.0,��
2021/09/12,21:50,0.596,0.888,0.561,1.070,0.760,0.364,0.626,0.586,��,4.7,��
2021/09/12,22:00,0.594,0.887,0.561,1.074,0.759,0.365,0.626,0.585,��,4.3,��
2021/09/12,22:10,0.594,0.888,0.561,1.071,0.758,0.362,0.624,0.585,��,3.1,��
2021/09/12,22:20,0.595,0.886,0.561,1.071,0.758,0.364,0.625,0.584,��,2.0,��
2021/09/12,22:30,0.595,0.885,0.559,1.073,0.758,0.364,0.625,0.585,��,2.2,��
2021/09/12,22:40,0.594,0.887,0.559,1.072,0.759,0.363,0.624,0.586,��,3.4,��
2021/09/12,22:50,0.595,0.885,0.561,1.072,0.758,0.363,0.625,0.587,��,2.9,��
2021/09/12,23:00,0.595,0.886,0.561,1.073,0.759,0.362,0.625,0.585,��,2.3,��
2021/09/12,23:10,0.595,0.888,0.561,1.072,0.761,0.363,0.625,0.586,���쐼,4.0,��
2021/09/12,23:20,0.595,0.885,0.561,1.073,0.757,0.363,0.626,0.585,���쐼,5.3,��
2021/09/12,23:30,0.596,0.887,0.559,1.072,0.758,0.363,0.626,0.586,��,3.3,��
2021/09/12,23:40,0.595,0.886,0.560,1.074,0.759,0.362,0.624,0.585,���쐼,1.7,��
2021/09/12,23:50,0.595,0.887,0.563,1.074,0.757,0.363,0.625,0.585,-,CALM,��
